IRIDIUM 155

Last updated on Sun Jun 21 2026 00:03:14 GMT+0000 (Coordinated Universal Time)

1 43573U 18061E 26171.39021337 .00000014 00000+0 -19774-5 0 9991 2 43573 86.3954 55.3337 0001983 83.1728 276.9694 14.34217628413813
UTC large
Height (km)
Speed (km/s)
/
Latitude / Longitude
Inclination (degrees)
Orbital Period (minutes)
Azimuth
Elevation
Range (km)
Doppler Factor

Next 0 passes for location: London (51.5072 / 0.1276)

No passes found over London.
IRIDIUM 155